Dewpoint
54 54 54 54 55 55 55 55 55 55 56 56 56 56 56 56 57 57 57 57 57 57 57 57 57 57 57 57 58 58 57 52 51 51 46 43 52 58 61 60 62 63 60 35 31 30 30 32 29 29 27 25 22 17 18 19 23 24 25 30 30 30 38 40 42 43 47 47 50 52 53 53 52 54 55 56 54 55 55 56 58 59 60 61 61 62 63 63
54 54 54 54 55 55 55 55 55 55 56 56 56 56 56 56 57 57 57 57 57 57 57 57 57 57 57 58 58 58 55 52 50 50 47 51 59 61 61 64 64 64 52 32 29 30 30 29 30 26 19 18 17 17 19 16 20 22 30 32 31 34 39 41 43 45 46 48 51 52 54 53 52 54 54 53 53 54 53 55 56 57 59 61 61 61 61 62
54 54 54 54 55 55 55 55 55 56 56 56 56 56 56 56 56 57 57 57 57 57 57 57 57 57 57 58 58 57 54 49 38 15 21 58 59 63 62 64 65 61 31 31 32 32 29 29 26 16 14 16 12 16 20 17 18 20 31 35 36 35 44 46 45 47 48 51 52 52 52 53 54 54 53 52 52 53 53 53 54 56 56 58 60 60 61 61
54 54 54 54 55 55 55 55 55 56 56 56 56 56 56 56 57 57 56 57 57 57 57 57 57 58 57 58 58 56 52 20 13 14 20 54 62 61 63 64 64 60 36 36 34 34 33 32 28 16 13 16 12 17 19 16 10 15 36 35 39 43 46 48 49 49 49 52 53 53 53 53 55 54 52 52 49 52 54 56 55 56 57 58 60 60 59 59
54 54 54 54 55 55 55 55 56 56 56 56 56 56 56 57 56 57 57 56 57 57 57 57 57 58 58 58 58 56 34 15 18 18 18 61 63 62 62 63 63 46 35 36 29 29 31 31 26 19 14 12 11 16 8 10 20 40 40 39 43 46 47 51 51 52 52 53 52 52 50 52 55 55 54 51 50 51 54 56 58 58 59 59 59 59 59 59
54 54 54 54 55 55 55 55 56 56 56 56 56 57 57 57 57 56 57 57 57 57 57 57 57 57 58 58 56 55 20 15 19 16 55 62 63 63 63 63 61 37 32 30 28 26 27 26 20 19 14 8 13 16 12 7 34 40 43 45 47 48 50 51 51 52 53 53 53 53 54 54 54 54 54 54 53 55 58 58 59 58 58 58 58 58 58 59
54 54 54 54 55 55 55 55 56 56 56 56 56 57 57 57 57 57 57 57 57 57 57 57 57 57 57 57 54 49 38 29 40 23 60 64 64 62 65 64 58 31 27 24 23 21 29 26 19 18 11 10 7 7 11 41 42 43 46 49 50 51 51 52 52 53 53 53 53 53 54 52 52 51 54 54 55 56 57 58 57 58 58 58 57 57 57 58
54 54 54 54 55 55 55 56 56 56 56 57 57 57 57 57 57 57 57 57 57 57 57 57 57 58 57 54 47 39 34 34 39 35 64 63 62 64 59 44 34 25 22 21 21 23 27 24 21 18 13 10 10 29 43 46 47 47 48 50 51 52 52 52 51 52 52 52 53 53 52 52 53 53 53 53 55 56 57 57 57 58 57 58 58 58 58 58
54 54 54 54 55 55 55 56 56 56 57 57 57 57 57 57 57 57 57 57 57 57 57 57 57 58 57 52 37 20 17 29 31 41 58 55 58 53 42 36 34 24 21 23 23 23 25 25 26 19 14 11 25 41 43 44 46 49 50 51 51 50 50 51 50 51 52 52 53 52 51 52 53 54 53 54 55 56 57 57 57 57 57 57 58 58 58 59
54 54 54 54 55 55 55 56 56 57 57 57 57 57 57 57 57 57 57 57 57 57 57 57 58 57 55 51 31 15 17 25 34 53 50 56 54 47 38 41 33 27 23 22 24 26 24 24 24 24 23 34 38 40 46 46 47 50 49 50 49 49 49 51 51 52 52 51 52 50 50 51 53 53 50 54 56 56 56 57 58 57 57 57 57 58 58 58
53 54 54 55 55 55 55 56 57 57 57 57 57 57 57 57 57 57 57 57 57 57 57 57 57 56 53 50 29 22 18 24 32 47 51 53 48 41 38 42 35 26 23 26 21 26 25 26 28 20 25 28 47 47 47 48 49 49 48 48 48 49 50 50 50 51 52 50 52 51 49 50 52 52 51 53 56 56 55 56 57 57 56 56 57 57 58 58
53 54 54 55 55 55 56 56 56 56 56 57 57 57 57 57 57 57 57 57 57 57 57 57 57 56 53 45 36 34 26 28 35 42 46 44 41 40 43 40 36 27 23 25 26 24 26 26 24 25 34 46 46 47 47 49 48 48 47 45 47 48 47 50 50 50 52 48 52 52 46 48 51 50 53 55 56 55 55 55 56 56 56 56 57 57 58 58
54 54 54 55 55 55 56 56 56 56 56 57 57 56 56 56 57 57 57 57 57 57 57 58 57 56 50 36 43 46 43 35 36 41 39 35 35 33 37 39 37 30 24 24 26 28 27 27 24 39 45 46 45 44 47 46 45 45 45 44 44 45 46 48 51 50 50 51 52 49 42 46 49 52 53 54 55 54 54 54 54 55 56 56 57 57 57 57
54 54 54 55 55 55 55 56 56 56 56 57 56 56 56 56 57 57 57 57 57 57 57 58 56 54 46 40 39 31 30 33 32 32 37 42 32 31 30 33 36 33 30 27 27 28 28 27 39 40 41 45 45 46 43 42 43 42 43 43 42 40 41 48 47 48 48 50 52 49 42 45 49 51 53 54 54 53 52 53 53 54 55 55 56 56 56 57
54 54 54 55 55 55 56 56 56 56 56 56 56 55 55 56 56 57 57 57 57 57 58 57 55 51 43 43 42 36 61 25 23 23 34 30 29 26 25 27 30 32 30 29 29 24 24 33 43 43 44 46 44 41 40 40 41 40 38 39 42 40 39 45 48 47 44 46 47 47 43 45 49 51 53 54 54 53 52 52 54 54 54 55 56 56 56 57
54 54 54 54 55 55 56 56 56 56 56 55 55 55 55 56 56 57 57 58 58 58 57 54 52 49 40 38 24 47 28 25 23 24 30 27 26 22 23 21 23 26 28 28 27 32 36 38 40 43 43 39 40 39 39 37 36 30 38 38 39 39 39 42 44 49 47 46 47 46 43 46 48 52 53 55 53 53 53 53 53 54 54 54 55 56 56 57
54 54 54 55 55 55 55 55 56 56 55 55 54 55 56 56 57 58 59 58 58 57 56 51 53 51 31 28 32 26 22 25 26 24 28 30 26 25 22 21 22 23 27 29 28 36 35 36 33 36 29 39 39 37 32 29 30 29 35 37 40 39 40 39 45 48 48 46 46 47 46 48 49 52 52 53 53 52 52 53 53 53 54 54 54 55 55 56
54 54 54 54 55 55 55 55 56 55 54 55 54 55 56 58 58 57 56 56 57 55 55 56 54 38 28 26 26 24 28 27 26 24 24 29 26 23 21 19 21 22 28 28 27 31 31 32 29 31 32 36 34 30 27 26 28 29 32 35 37 39 40 41 40 44 47 48 47 48 48 48 49 50 51 52 53 52 52 52 52 52 53 54 54 55 55 55
54 54 54 54 55 55 55 55 55 55 55 56 56 57 56 56 55 53 52 52 40 37 36 42 36 28 20 22 27 33 32 28 27 24 24 21 24 25 29 26 25 21 24 23 25 27 28 29 33 34 33 31 31 29 25 27 29 28 31 34 38 38 38 39 45 47 47 46 46 47 46 47 48 49 51 52 52 51 51 52 52 53 52 53 53 54 54 55
53 54 54 54 55 55 55 55 55 54 54 54 55 54 53 44 39 37 49 49 40 33 33 36 38 37 38 38 35 36 33 26 24 24 23 26 20 21 21 23 22 23 22 23 34 30 30 29 30 32 32 31 31 29 26 29 29 33 36 38 39 39 41 44 46 47 48 46 45 46 47 47 48 49 50 51 52 51 51 51 51 51 51 52 52 53 54 54
54 54 54 54 55 55 55 54 54 54 53 51 51 46 40 39 36 36 37 42 46 42 35 34 38 36 34 34 32 27 22 22 24 23 24 45 22 20 19 21 20 22 23 25 23 32 27 29 29 31 32 31 29 29 32 31 32 33 36 37 38 39 39 43 44 46 48 46 46 47 47 47 48 49 50 51 50 48 50 51 51 51 51 52 52 52 53 53
54 54 54 55 55 55 54 54 53 53 53 52 52 46 42 41 42 40 38 35 37 39 41 37 37 35 36 36 36 24 23 21 20 21 22 24 23 18 19 20 20 17 24 28 27 27 23 24 22 24 26 32 32 32 31 32 34 36 36 38 37 38 41 43 44 46 47 46 45 46 45 46 48 49 49 49 50 51 52 51 51 51 51 51 51 52 52 53
54 54 54 54 54 54 53 53 51 52 52 52 51 48 39 42 44 45 40 38 37 38 39 38 36 36 36 35 29 30 24 19 18 20 21 24 21 20 21 24 27 25 20 22 23 24 23 22 21 27 32 33 34 34 34 35 36 37 37 35 34 38 36 34 41 45 46 46 44 45 44 44 44 48 50 50 50 50 51 51 52 51 52 52 52 52 52 52
53 54 54 54 54 54 53 52 51 50 50 48 46 40 42 44 45 42 39 37 32 34 37 37 36 31 30 23 24 22 21 20 19 18 23 21 19 21 23 26 21 20 18 20 21 19 18 21 27 34 33 33 33 34 34 34 34 37 36 35 38 40 38 37 40 43 44 44 44 42 39 37 39 43 44 48 51 51 51 52 52 53 53 54 53 52 53 52
53 53 54 54 54 53 51 51 48 45 44 46 49 47 44 46 48 43 40 35 35 35 41 25 29 25 21 25 24 23 22 23 21 21 24 21 19 20 21 24 21 20 20 21 21 21 22 24 30 33 34 34 34 34 33 34 35 36 36 38 39 42 42 43 42 40 37 38 41 35 28 32 35 39 43 46 47 49 51 51 50 52 53 53 52 52 52 52
53 53 53 54 53 52 51 46 44 43 43 41 38 42 44 46 49 43 37 33 28 33 23 21 26 22 26 22 24 23 20 19 22 23 25 23 27 21 22 18 22 20 20 21 20 23 24 28 30 32 33 33 33 33 34 35 35 34 35 42 42 43 43 42 39 37 32 33 39 37 30 27 32 39 42 45 47 47 48 49 50 52 52 52 51 51 51 51
53 53 53 53 52 51 43 42 42 44 37 34 41 44 43 47 52 47 37 27 21 25 25 22 23 22 24 22 24 21 20 17 20 21 21 25 22 24 17 18 19 22 20 24 28 22 28 29 29 30 31 31 32 33 34 36 34 32 37 43 43 43 42 40 38 37 34 39 40 38 33 29 32 35 39 45 46 45 46 47 49 50 52 51 51 51 51 51
53 53 53 53 52 51 40 45 43 41 32 36 44 43 45 51 48 45 30 15 14 25 25 24 24 27 23 24 21 20 18 18 17 20 22 22 21 17 16 16 17 19 21 24 22 23 29 28 29 29 29 29 31 31 33 35 34 34 41 43 43 42 41 39 38 36 36 36 32 33 36 30 29 31 41 47 44 42 45 46 47 49 51 51 51 51 51 51
52 52 52 52 52 51 48 47 43 39 41 46 44 45 50 47 43 37 28 16 24 29 28 27 26 24 24 22 18 18 14 18 19 20 21 22 23 17 15 18 18 18 20 23 22 18 20 29 29 29 29 29 31 33 34 37 37 41 41 41 40 38 38 38 36 36 32 31 29 31 33 28 26 31 39 42 42 42 43 45 47 48 49 50 51 50 50 51
52 52 52 51 50 48 46 49 43 45 49 44 44 49 50 46 39 32 21 13 31 23 22 23 22 21 21 18 16 15 14 15 18 19 21 21 23 22 22 19 19 20 20 20 18 18 19 38 37 31 30 31 34 36 36 39 40 41 39 38 36 34 34 35 32 32 29 22 27 31 35 30 25 30 38 39 40 42 44 43 45 47 49 50 50 49 50 51
52 51 51 50 40 44 42 34 37 43 43 43 47 48 46 39 32 24 16 24 30 28 30 26 23 22 20 18 18 16 15 17 16 20 18 21 21 25 23 20 25 20 21 21 20 21 23 25 28 32 39 35 38 38 39 40 39 38 36 36 35 34 30 30 28 28 23 21 25 28 35 30 25 28 32 41 42 44 45 45 46 47 48 50 49 49 50 50
51 50 49 48 52 49 31 29 31 41 42 46 48 43 40 31 32 26 21 35 27 30 25 24 22 20 18 18 17 17 19 19 19 19 18 20 22 24 23 22 30 20 17 21 19 22 22 20 21 31 44 36 37 37 36 36 34 35 35 34 31 26 25 24 25 24 21 22 28 34 34 31 28 30 35 38 42 44 45 45 46 48 48 49 48 49 49 50
50 49 49 50 50 47 44 36 43 44 44 50 46 42 33 29 22 29 32 33 21 29 25 22 22 21 22 18 16 22 20 18 19 21 21 22 20 18 20 25 28 22 19 25 20 22 23 24 26 28 33 37 37 35 34 34 34 35 34 30 28 22 17 19 19 22 24 27 30 34 35 29 31 34 37 38 40 44 46 46 47 48 49 48 48 48 49 49
49 48 46 49 49 45 44 49 46 45 49 48 45 41 30 25 21 48 38 35 25 22 27 25 23 24 27 16 23 30 22 21 21 21 22 23 23 23 21 21 26 26 29 27 21 22 21 25 29 28 30 33 33 36 36 35 33 35 31 30 29 26 23 18 20 17 20 26 28 32 29 27 29 32 39 42 42 45 46 47 47 48 49 48 48 48 48 48
48 47 48 48 49 50 48 48 47 54 49 46 38 35 25 24 29 30 32 35 33 35 32 29 24 21 22 26 22 22 23 22 22 24 24 22 20 22 23 22 22 28 26 21 22 24 24 24 27 27 24 32 32 32 35 34 33 32 32 31 28 27 29 23 24 24 25 27 26 30 27 29 33 38 42 44 44 45 46 46 48 48 48 47 47 47 47 48
45 48 48 43 43 42 50 49 48 50 45 40 34 30 28 33 29 34 30 32 31 33 31 17 23 20 20 23 24 21 24 21 23 28 25 24 23 23 21 20 23 25 24 23 26 18 20 17 19 19 25 32 32 33 33 35 31 33 31 29 31 33 30 25 24 27 27 24 23 23 32 32 36 39 41 44 41 40 44 45 46 47 47 47 46 46 46 47
46 49 34 42 44 50 50 50 54 50 44 38 34 28 35 39 34 37 45 33 32 34 30 20 19 19 17 16 21 22 22 24 25 25 21 26 21 22 23 22 22 26 28 28 26 25 18 16 19 18 19 17 24 30 28 28 34 31 29 31 33 34 32 28 22 21 18 19 18 29 30 28 30 31 39 41 40 39 41 44 45 46 46 46 46 46 46 47
47 50 50 52 48 46 50 51 49 45 42 36 28 41 42 38 41 38 40 33 31 35 30 24 19 18 18 24 20 20 21 20 25 28 24 26 21 23 23 23 24 29 29 28 25 26 21 13 15 18 17 17 19 24 24 23 28 32 32 34 28 20 23 26 26 20 20 21 19 25 30 28 30 30 36 39 40 39 36 40 43 44 45 46 45 45 45 46
47 39 26 27 45 49 48 49 45 44 37 30 30 33 37 40 42 40 36 35 35 35 26 26 23 24 27 21 21 21 20 22 24 29 24 24 21 25 23 24 28 30 32 27 28 29 30 17 18 18 16 20 20 24 20 23 24 26 29 29 33 27 26 25 24 26 23 15 19 24 27 27 33 34 38 40 41 41 35 38 43 44 45 45 45 45 44 45
45 38 37 48 50 49 50 50 45 40 33 25 29 36 40 39 39 40 36 33 29 28 26 27 30 22 22 22 22 18 19 24 24 24 24 24 24 23 25 26 26 26 34 33 29 34 25 26 13 17 21 19 17 20 21 21 21 23 26 26 27 29 30 27 26 25 24 21 17 19 20 26 33 36 39 40 41 40 36 37 41 43 44 44 44 44 44 44
47 45 45 51 52 51 44 41 36 31 28 33 41 39 41 37 34 32 33 35 31 29 30 29 31 21 22 22 17 20 21 22 21 22 25 23 24 19 26 24 28 32 32 32 34 33 23 25 19 18 23 20 18 20 18 20 23 25 27 25 26 25 24 21 18 28 28 26 22 20 18 26 30 39 40 40 42 41 37 37 39 42 44 44 44 44 44 43
44 37 43 49 52 45 42 35 33 40 37 32 28 38 31 45 30 26 29 27 27 25 31 29 30 29 27 24 20 23 20 19 22 22 22 19 21 25 26 26 27 31 32 29 31 34 26 28 25 19 20 23 24 25 27 29 26 28 29 26 30 27 25 23 17 20 27 29 29 26 22 25 34 39 41 42 42 41 37 37 39 41 43 43 43 43 43 43
43 43 49 52 51 40 38 34 37 33 35 37 41 42 39 36 33 26 27 26 25 27 26 24 26 22 25 20 21 22 22 20 21 22 21 24 25 26 28 30 29 33 34 32 31 31 51 25 23 23 26 29 29 30 31 34 29 25 28 33 30 27 27 24 23 25 26 27 24 21 19 24 32 38 40 42 42 41 37 38 38 39 41 42 41 42 42 42
45 46 47 51 49 45 38 31 20 23 35 44 42 41 40 33 26 24 27 31 28 27 27 28 28 22 24 29 22 19 22 18 19 21 21 23 24 23 26 32 33 32 29 29 27 35 20 21 24 21 19 22 24 26 26 30 31 27 25 29 33 32 32 31 30 29 27 27 26 23 16 19 32 38 41 42 42 40 37 37 39 38 39 40 40 41 41 42
45 47 48 48 46 45 37 35 30 32 38 41 39 34 34 30 27 28 29 32 36 29 30 28 29 29 27 29 24 24 24 20 21 22 21 24 26 27 23 30 36 32 36 42 45 36 27 27 26 20 15 13 12 12 16 19 21 26 29 30 30 30 29 26 23 25 23 24 26 19 17 24 30 37 38 39 40 40 38 38 39 39 38 39 40 40 41 41
44 35 40 41 42 43 42 44 43 42 39 38 29 32 33 28 24 26 31 31 34 38 31 31 33 33 31 25 26 25 23 25 24 23 20 20 21 21 21 26 43 44 53 53 49 39 32 31 27 25 22 22 23 23 28 29 24 21 24 27 28 30 31 30 27 22 22 24 24 24 26 27 30 35 37 36 38 39 38 37 37 37 37 39 39 40 40 41
43 37 31 36 40 39 39 40 41 38 33 37 27 32 29 32 28 29 27 28 27 35 35 35 34 24 25 28 28 25 26 24 28 25 26 23 22 20 24 30 34 50 51 46 47 34 30 25 28 28 28 27 29 28 30 30 23 24 25 25 28 29 30 28 23 20 26 27 20 27 30 28 30 32 34 35 36 36 37 37 36 37 37 38 38 39 44 41
36 40 40 41 37 31 35 35 40 40 40 36 34 36 35 28 28 25 24 26 31 34 29 29 34 35 32 27 30 23 27 27 27 22 30 27 24 25 26 26 28 36 45 33 41 32 28 22 26 25 24 27 32 32 32 30 27 27 27 27 26 29 28 24 25 26 27 22 23 26 30 28 30 32 35 36 36 36 36 37 37 37 38 38 38 37 38 39
41 42 44 41 33 36 38 36 40 41 39 36 34 35 32 28 25 26 26 28 32 32 33 23 27 31 35 34 29 25 29 22 20 27 27 27 28 27 26 26 27 30 32 33 35 33 28 24 28 28 25 26 30 32 31 27 27 27 29 30 31 29 29 28 30 29 27 26 27 29 31 30 32 33 33 34 37 37 37 37 37 36 37 38 37 37 37 38
40 43 43 48 45 43 38 41 40 38 35 41 29 33 34 31 26 27 27 30 28 30 32 29 28 32 36 36 32 26 30 31 29 24 29 28 25 29 26 29 26 27 32 30 35 33 30 23 34 31 24 24 29 33 32 30 27 23 27 30 30 31 29 31 32 32 32 28 29 30 29 28 32 33 33 34 35 35 35 36 34 36 37 38 38 37 37 38
49 49 49 47 41 41 41 39 37 35 32 34 34 35 33 35 27 29 28 31 32 30 33 26 27 33 33 32 31 28 31 35 35 30 34 31 25 28 28 28 27 28 31 30 32 32 33 24 31 28 22 22 27 31 30 30 30 27 26 27 28 27 25 27 25 31 28 27 27 26 25 26 30 33 36 34 34 34 33 34 34 35 36 39 38 38 38 38
48 50 50 47 41 46 36 38 36 35 31 36 37 35 34 33 32 28 25 28 34 36 32 26 33 30 26 29 27 29 33 36 34 29 33 33 26 29 28 26 28 27 30 30 34 29 30 30 26 24 26 20 27 31 29 28 25 22 24 28 30 30 30 30 29 35 33 31 26 21 26 29 30 36 30 30 33 33 34 34 34 35 36 38 38 38 38 39